Weather History for Pellston, MI

Change the Weather History Date:

Thursday, June 20, 2013

  Actual Average Record
Temperature  
Mean Temperature 60 °F -  
Max Temperature 81 °F 74 °F 91 °F (1998)
Min Temperature 39 °F 49 °F 30 °F (1970)
Degree Days  
Heating Degree Days 6    
Growing Degree Days 10 (Base 50)    
Moisture  
Dew Point 46 °F    
Average Humidity 60    
Maximum Humidity 96    
Minimum Humidity 32    
Precipitation  
Precipitation 0.00 in - - ()
Sea Level Pressure  
Sea Level Pressure 30.15 in    
Wind  
Wind Speed 3 mph (West)    
Max Wind Speed 13 mph    
Max Gust Speed 23 mph    
Visibility 10 miles    
Events      
Averages and records for this station are not official NWS values.
T = Trace of Precipitation, MM = Missing Value Source: NWS Daily Summary

Daily Weather History Graph

Daily Weather History Graph

Search for Another Location

Airport:

Trip Planner

Search our weather history database for the weather conditions in past years. The results will help you decide how hot, cold, wet, or windy it might be!

Date:

Astronomy

Jun. 20, 2013 Rise Set
Actual Time 5:49 AM EDT 9:31 PM EDT
Civil Twilight 5:11 AM EDT 10:09 PM EDT
Nautical Twilight 4:20 AM EDT 11:00 PM EDT
Astronomical Twilight 3:11 AM EDT 12:10 AM EDT
Moon 6:27 PM EDT (6/20) 3:22 AM EDT (6/20)
Length of Visible Light 16h 57m
Length of Day
15h 41m
Waxing Gibbous, 89% of the Moon is Illuminated
Jun 20
Waxing Gibbous
Jun 23
Full
Jun 30
Last Quarter
Jul 8
New
Jul 15
First Quarter

Hourly Weather History & Observations

Time (EDT) Temp. Dew Point Humidity Pressure Visibility Wind Dir Wind Speed Gust Speed Precip Events Conditions
12:54 AM 44.1 °F 43.0 °F 96% 30.14 in 10.0 mi Calm Calm - N/A   Clear
1:54 AM 43.0 °F 41.0 °F 93% 30.13 in 10.0 mi Calm Calm - N/A   Clear
2:54 AM 41.0 °F 39.0 °F 93% 30.13 in 10.0 mi Calm Calm - N/A   Clear
3:54 AM 41.0 °F 37.9 °F 89% 30.14 in 10.0 mi Calm Calm - N/A   Clear
4:54 AM 39.9 °F 37.9 °F 93% 30.13 in 10.0 mi Calm Calm - N/A   Clear
5:54 AM 39.9 °F 37.9 °F 93% 30.15 in 10.0 mi Calm Calm - N/A   Clear
6:54 AM 46.9 °F 43.0 °F 86% 30.15 in 10.0 mi Calm Calm - N/A   Clear
7:54 AM 57.9 °F 48.9 °F 72% 30.15 in 10.0 mi Calm Calm - N/A   Clear
8:54 AM 66.0 °F 44.1 °F 45% 30.16 in 10.0 mi SW 5.8 mph - N/A   Partly Cloudy
9:54 AM 70.0 °F 41.0 °F 35% 30.17 in 10.0 mi SW 9.2 mph - N/A   Clear
10:54 AM 73.9 °F 42.1 °F 32% 30.17 in 10.0 mi WSW 9.2 mph - N/A   Overcast
11:54 AM 75.0 °F 44.1 °F 33% 30.17 in 10.0 mi SW 12.7 mph 23.0 mph N/A   Clear
12:54 PM 77.0 °F 46.9 °F 34% 30.17 in 10.0 mi West 11.5 mph 18.4 mph N/A   Clear
1:54 PM 78.1 °F 48.9 °F 36% 30.17 in 10.0 mi WSW 10.4 mph 18.4 mph N/A   Clear
2:54 PM 79.0 °F 51.1 °F 38% 30.16 in 10.0 mi West 11.5 mph - N/A   Clear
3:54 PM 80.1 °F 51.1 °F 36% 30.15 in 10.0 mi West 12.7 mph 17.3 mph N/A   Clear
4:54 PM 80.1 °F 52.0 °F 38% 30.15 in 10.0 mi WNW 9.2 mph - N/A   Clear
5:54 PM 79.0 °F 52.0 °F 39% 30.14 in 10.0 mi NW 4.6 mph - N/A   Scattered Clouds
6:54 PM 77.0 °F 53.1 °F 43% 30.13 in 10.0 mi West 3.5 mph - N/A   Mostly Cloudy
7:54 PM 73.0 °F 51.1 °F 46% 30.14 in 10.0 mi NE 6.9 mph - N/A   Overcast
8:54 PM 70.0 °F 50.0 °F 49% 30.14 in 10.0 mi NE 4.6 mph - N/A   Clear
9:54 PM 64.9 °F 51.1 °F 61% 30.16 in 10.0 mi Calm Calm - N/A   Mostly Cloudy
10:54 PM 59.0 °F 52.0 °F 78% 30.17 in 10.0 mi WNW 3.5 mph - N/A   Partly Cloudy
11:54 PM 57.0 °F 52.0 °F 83% 30.17 in 10.0 mi Calm Calm - N/A   Partly Cloudy